Location: *
(41.3833°S, 177.8333°W)
Time: 07:39:32
(UTC+00:00)

STARLINK-1243 - Pass Details

Date: 01 April 2020
Orbit: 549 x 550 km, 53.0° (Epoch: 04 June)

Event Time Altitude Azimuth Distance (km) Brightness Sun altitude
Rises 17:41:01 0° 311° (NW) 2,719 6.7 -5.9°
Reaches altitude 10° 17:43:14 10° 311° (NW) 1,831 5.9 -5.5°
Maximum altitude 17:47:25 86° 38° (NE) 564 3.7 -4.7°
Drops below altitude 10° 17:51:38 10° 127° (SE) 1,849 7.2 -3.9°
Sets 17:53:53 0° 127° (SE) 2,749 8.1 -3.5°
